Hourly Weather Cotiujenii Mari

Today, 20 June, Sunday

Time Temperature Precipitation Wind Pressure Humidity
00:00 +18°C° 0 mm 2 mps 741 mmHg 91%
01:00 +18°C° 0 mm 2 mps 740 mmHg 92%
02:00 +18°C° 0 mm 2 mps 740 mmHg 93%
03:00 +18°C° 5 mm 2 mps 740 mmHg 95%
04:00 +18°C° 5 mm 2 mps 739 mmHg 97%
05:00 +18°C° 5 mm 2 mps 739 mmHg 99%
06:00 +18°C° 3 mm 2 mps 739 mmHg 97%
07:00 +19°C° 3 mm 2 mps 739 mmHg 96%
08:00 +19°C° 0 mm 3 mps 740 mmHg 95%
09:00 +21°C° 0.2 mm 3 mps 739 mmHg 89%
10:00 +22°C° 0.2 mm 4 mps 739 mmHg 82%
11:00 +25°C° 0.2 mm 5 mps 739 mmHg 75%
12:00 +25°C° 0.5 mm 5 mps 739 mmHg 75%
13:00 +25°C° 0.5 mm 5 mps 739 mmHg 74%
14:00 +25°C° 0.5 mm 5 mps 738 mmHg 74%
15:00 +23°C° 0.7 mm 4 mps 738 mmHg 77%
16:00 +23°C° 0.7 mm 4 mps 738 mmHg 80%
17:00 +24°C° 0.7 mm 3 mps 738 mmHg 83%
18:00 +22°C° 0.6 mm 3 mps 738 mmHg 85%
19:00 +21°C° 0.6 mm 3 mps 738 mmHg 88%
20:00 +20°C° 0.6 mm 3 mps 738 mmHg 91%
21:00 +20°C° 0 mm 2 mps 738 mmHg 90%
22:00 +20°C° 0 mm 2 mps 738 mmHg 90%
23:00 +20°C° 0 mm 2 mps 738 mmHg 89%

Tomorrow, 21 June, Monday

Time Temperature Precipitation Wind Pressure Humidity
00:00 +19°C° 0 mm 2 mps 738 mmHg 90%
01:00 +19°C° 0 mm 2 mps 738 mmHg 91%
02:00 +19°C° 0 mm 2 mps 738 mmHg 92%
03:00 +19°C° 0 mm 1 mps 738 mmHg 94%
04:00 +19°C° 0 mm 1 mps 738 mmHg 95%
05:00 +19°C° 0 mm 1 mps 738 mmHg 96%
06:00 +19°C° 0 mm 2 mps 738 mmHg 94%
07:00 +20°C° 0 mm 2 mps 739 mmHg 91%
08:00 +21°C° 0 mm 3 mps 739 mmHg 88%
09:00 +22°C° 0 mm 3 mps 739 mmHg 83%
10:00 +24°C° 0 mm 3 mps 739 mmHg 78%
11:00 +25°C° 0 mm 3 mps 739 mmHg 73%
12:00 +26°C° 0 mm 3 mps 739 mmHg 68%
13:00 +27°C° 0 mm 3 mps 739 mmHg 63%
14:00 +28°C° 0 mm 3 mps 739 mmHg 57%
15:00 +28°C° 0 mm 3 mps 739 mmHg 59%
16:00 +28°C° 0 mm 2 mps 739 mmHg 60%
17:00 +28°C° 0 mm 2 mps 739 mmHg 61%
18:00 +27°C° 0 mm 2 mps 739 mmHg 65%
19:00 +25°C° 0 mm 1 mps 739 mmHg 69%
20:00 +24°C° 0 mm 1 mps 739 mmHg 73%
21:00 +23°C° 0 mm 1 mps 739 mmHg 73%
22:00 +23°C° 0 mm 1 mps 739 mmHg 74%
23:00 +23°C° 0 mm 1 mps 739 mmHg 75%

Day after tomorrow, 22 June, Tuesday

Time Temperature Precipitation Wind Pressure Humidity
00:00 +22°C° 0 mm 1 mps 739 mmHg 76%
01:00 +20°C° 0 mm 0 mps 739 mmHg 78%
02:00 +19°C° 0 mm 0 mps 739 mmHg 80%
03:00 +21°C° 0 mm 1 mps 738 mmHg 81%
04:00 +21°C° 0 mm 1 mps 738 mmHg 82%
05:00 +21°C° 0 mm 1 mps 738 mmHg 83%
06:00 +23°C° 0 mm 1 mps 739 mmHg 80%
07:00 +24°C° 0 mm 2 mps 739 mmHg 77%
08:00 +26°C° 0 mm 2 mps 739 mmHg 74%
09:00 +27°C° 0.1 mm 2 mps 739 mmHg 70%
10:00 +28°C° 0.1 mm 2 mps 739 mmHg 66%
11:00 +29°C° 0.1 mm 2 mps 739 mmHg 62%
12:00 +30°C° 0.4 mm 2 mps 739 mmHg 61%
13:00 +30°C° 0.4 mm 2 mps 739 mmHg 59%
14:00 +30°C° 0.4 mm 2 mps 739 mmHg 58%
15:00 +30°C° 0.8 mm 2 mps 739 mmHg 61%
16:00 +29°C° 0.8 mm 2 mps 739 mmHg 64%
17:00 +29°C° 0.8 mm 2 mps 739 mmHg 68%
18:00 +27°C° 0.6 mm 2 mps 739 mmHg 72%
19:00 +26°C° 0.6 mm 2 mps 739 mmHg 76%
20:00 +25°C° 0.6 mm 2 mps 739 mmHg 80%
21:00 +24°C° 0.1 mm 1 mps 739 mmHg 82%
22:00 +23°C° 0.1 mm 1 mps 739 mmHg 84%
23:00 +23°C° 0.1 mm 1 mps 739 mmHg 85%

23 June, Wednesday

Time Temperature Precipitation Wind Pressure Humidity
00:00 +23°C° 0.3 mm 1 mps 739 mmHg 87%
01:00 +22°C° 0.3 mm 1 mps 739 mmHg 89%
02:00 +22°C° 0.3 mm 1 mps 739 mmHg 91%
03:00 +22°C° 0.1 mm 1 mps 739 mmHg 91%
04:00 +22°C° 0.1 mm 1 mps 739 mmHg 91%
05:00 +22°C° 0.1 mm 1 mps 739 mmHg 91%
06:00 +23°C° 0 mm 1 mps 740 mmHg 85%
07:00 +25°C° 0 mm 1 mps 740 mmHg 80%
08:00 +26°C° 0 mm 2 mps 740 mmHg 74%
09:00 +27°C° 0 mm 2 mps 740 mmHg 69%
10:00 +28°C° 0 mm 2 mps 740 mmHg 64%
11:00 +29°C° 0 mm 2 mps 741 mmHg 58%
12:00 +30°C° 0 mm 2 mps 741 mmHg 57%
13:00 +30°C° 0 mm 2 mps 741 mmHg 56%
14:00 +31°C° 0 mm 2 mps 741 mmHg 54%
15:00 +30°C° 0 mm 2 mps 741 mmHg 56%
16:00 +30°C° 0 mm 2 mps 741 mmHg 58%
17:00 +30°C° 0 mm 2 mps 741 mmHg 60%
18:00 +29°C° 0 mm 1 mps 741 mmHg 65%
19:00 +27°C° 0 mm 1 mps 741 mmHg 70%
20:00 +26°C° 0 mm 1 mps 741 mmHg 74%
21:00 +25°C° 0 mm 1 mps 741 mmHg 76%
22:00 +25°C° 0 mm 1 mps 741 mmHg 77%
23:00 +22°C° 0 mm 0 mps 741 mmHg 79%

24 June, Thursday

Time Temperature Precipitation Wind Pressure Humidity
00:00 +22°C° 0.1 mm 0 mps 741 mmHg 80%
01:00 +22°C° 0.1 mm 0 mps 741 mmHg 82%
02:00 +21°C° 0.1 mm 0 mps 741 mmHg 83%
03:00 +21°C° 0 mm 0 mps 741 mmHg 84%
04:00 +21°C° 0 mm 0 mps 741 mmHg 85%
05:00 +23°C° 0 mm 1 mps 741 mmHg 86%
06:00 +24°C° 0 mm 1 mps 741 mmHg 81%
07:00 +26°C° 0 mm 1 mps 741 mmHg 77%
08:00 +27°C° 0 mm 1 mps 742 mmHg 73%
09:00 +28°C° 0 mm 1 mps 742 mmHg 68%
10:00 +30°C° 0 mm 1 mps 742 mmHg 63%
11:00 +29°C° 0 mm 0 mps 742 mmHg 58%
12:00 +29°C° 0 mm 0 mps 742 mmHg 55%
13:00 +30°C° 0 mm 0 mps 741 mmHg 52%
14:00 +32°C° 0 mm 1 mps 741 mmHg 49%
15:00 +32°C° 0 mm 1 mps 741 mmHg 50%
16:00 +32°C° 0 mm 1 mps 741 mmHg 50%
17:00 +32°C° 0 mm 1 mps 741 mmHg 51%
18:00 +31°C° 0 mm 1 mps 741 mmHg 55%
19:00 +29°C° 0 mm 1 mps 741 mmHg 60%
20:00 +28°C° 0 mm 1 mps 740 mmHg 65%
21:00 +27°C° 0.1 mm 1 mps 740 mmHg 67%
22:00 +26°C° 0.1 mm 1 mps 740 mmHg 69%
23:00 +23°C° 0.1 mm 0 mps 740 mmHg 71%

25 June, Friday

Time Temperature Precipitation Wind Pressure Humidity
00:00 +23°C° 0.1 mm 0 mps 740 mmHg 73%
01:00 +23°C° 0.1 mm 0 mps 740 mmHg 74%
02:00 +22°C° 0.1 mm 0 mps 739 mmHg 76%
03:00 +22°C° 0 mm 0 mps 740 mmHg 77%
04:00 +22°C° 0 mm 0 mps 740 mmHg 78%
05:00 +22°C° 0 mm 0 mps 740 mmHg 78%
06:00 +24°C° 0 mm 0 mps 740 mmHg 75%
07:00 +25°C° 0 mm 0 mps 740 mmHg 71%
08:00 +28°C° 0 mm 1 mps 740 mmHg 67%
09:00 +29°C° 0.2 mm 1 mps 740 mmHg 64%
10:00 +30°C° 0.2 mm 1 mps 740 mmHg 60%
11:00 +31°C° 0.2 mm 1 mps 740 mmHg 57%
12:00 +31°C° 0 mm 1 mps 740 mmHg 55%
13:00 +32°C° 0 mm 1 mps 740 mmHg 54%
14:00 +32°C° 0 mm 1 mps 740 mmHg 52%
15:00 +32°C° 0 mm 1 mps 739 mmHg 52%
16:00 +32°C° 0 mm 1 mps 739 mmHg 52%
17:00 +32°C° 0 mm 1 mps 738 mmHg 52%
18:00 +30°C° 0.1 mm 1 mps 739 mmHg 60%
19:00 +28°C° 0.1 mm 1 mps 739 mmHg 67%
20:00 +26°C° 0.1 mm 1 mps 739 mmHg 74%
21:00 +26°C° 0.2 mm 1 mps 739 mmHg 76%
22:00 +25°C° 0.2 mm 1 mps 739 mmHg 77%
23:00 +24°C° 0.2 mm 1 mps 739 mmHg 78%
Show more